Location: Antichan
(42.9728°N, 0.6667°E)
Time: 16:54:01
(UTC+00:00)

Cosmos 1441 Rocket - Pass Details

Date: 15 August 2020
Orbit: 497 x 540 km, 81.1° (Epoch: 19 September)

Event Time Altitude Azimuth Distance (km) Brightness Sun altitude
Rises 19:27:02 0° 190° (S) 2,601 6.6 -5.6°
Reaches altitude 10° 19:29:10 10° 191° (S) 1,715 5.7 -5.9°
Maximum altitude 19:32:55 85° 279° (W) 511 3.2 -6.5°
Drops below altitude 10° 19:36:41 10° 9° (N) 1,712 6.1 -7.2°
Sets 19:38:48 0° 10° (N) 2,598 7.0 -7.5°
